Location: Dos Palmas
(32.4468°N, 116.8732°W)
Time: 04:25:04
(UTC+00:00)

Cosmos 1461 - Pass Details

Date: 20 June 2021
Orbit: 513 x 650 km, 65.0° (Epoch: 29 July)

Event Time Altitude Azimuth Distance (km) Brightness Sun altitude
Rises 05:42:52 0° 323° (NW) 2,749 7.7 -26.5°
Reaches altitude 10° 05:45:13 10° 316° (NW) 1,827 6.4 -26.8°
Enters shadow 05:48:03 33° 282° (WNW) 920 4.2 -27.1°
